Location: Caltech
(34.1382°N, 118.1253°W)
Time: 06:48:25
(UTC-07:00)

ALOS - Visible Passes

Search period start: 24 May 2016 00:00
Search period end: 03 June 2016 00:00
Orbit: 684 x 688 km, 97.9° (Epoch: 23 May)

Date Brightness Start Highest point End Pass type
(mag) Time Alt. Az. Time Alt. Az. Time Alt. Az.
24 May 2.5 20:47:06 10° S 20:51:45 71° WSW 20:56:25 10° NNW visible
25 May 4.2 21:25:39 10° SSW 21:29:33 26° W 21:33:27 10° NW visible
26 May 2.3 20:25:07 10° SSE 20:29:43 65° ENE 20:34:22 10° N visible
27 May 3.3 21:02:56 10° S 21:07:24 46° W 21:11:54 10° NNW visible
28 May 4.8 21:42:10 10° SW 21:45:16 18° W 21:48:23 10° NW visible
29 May 2.4 20:40:40 10° S 20:45:20 82° WSW 20:50:01 10° NNW visible
30 May 4.0 21:19:00 10° SSW 21:23:06 30° W 21:27:12 10° NW visible
31 May 2.5 20:18:45 10° SSE 20:23:19 56° ENE 20:27:53 10° N visible
31 May 5.1 21:59:34 10° WSW 22:01:02 11° W 22:02:31 10° WNW visible
01 Jun 3.0 20:56:25 10° S 21:00:58 54° W 21:05:33 10° NNW visible
02 Jun 4.6 21:35:22 10° SW 21:38:48 20° W 21:42:15 10° NW visible
